Content
SEND FEEDBACK

Daily
Averages
Monthly
Summary
United States of America

MAURICEVILLE, TEXAS


Home > North America > United States > Texas
Elevation: 20 feet     Latitude: 30 14N     Longitude: 093 44W

WEATHER
 
SELECT A DAY
Number of Records: 117,132;   Date Range: 8/25/05 - 11/22/14
 
SHARE

PRINT THIS DATA

[ ← Previous Day ]
WEATHER ALMANAC - DECEMBER 8, 2013
[ Next Day → ]
[ °C ]   °F
Weather ElementAverageHighLow
Temperature40.8 °F45.5 °F (10:15 pm)36.1 °F (1:55 am)
Dewpoint38.5 °F43.7 °F (9:55 pm)32.5 °F (3:55 am)
Humidity91.6 %98 % (9:55 am)85 % (2:55 pm)
Barometer30.16 in30.29 in (12:35 am)30.07 in (4:15 pm)
Wind Speed4.3 mph6.9 mph (2:15 am)
Weather ElementAverage
Visibility8.2 mi
Wind DirectionSSW (209.6 °)

Weather ElementTotal
Precipitation0.14 in
Heating Degree Days24.2 (Base 65)
Averaged from 71 records on December 8, 2013
WEATHER CONDITIONS BREAKOUT
WIND DIRECTION BREAKOUT
WEATHER BY HOUR - DECEMBER 8, 2013
[ °C ]   °F
Local TimeTemperatureDewpointHumidityBarometerVisibilityWind DirectionWind SpeedGust SpeedPrecipitationEventsConditions
12:35 AM37.0 °F33.6 °F87 %30.29 in10.0 miNNW (340°)3.5 mphOvercast
12:55 AM36.9 °F33.4 °F87 %30.28 in10.0 miNorth (350°)5.8 mphOvercast
1:15 AM36.7 °F33.3 °F87 %30.26 in10.0 miNorth (360°)5.8 mphOvercast
1:35 AM36.5 °F32.9 °F87 %30.24 in10.0 miNNE (30°)5.8 mphOvercast
1:55 AM36.1 °F33.3 °F89 %30.23 in10.0 miNNE (20°)5.8 mphOvercast
2:15 AM36.5 °F33.8 °F90 %30.21 in10.0 miNE (50°)6.9 mphOvercast
2:35 AM36.5 °F33.8 °F90 %30.21 in10.0 miNE (40°)6.9 mphOvercast
2:55 AM36.3 °F33.3 °F89 %30.21 in10.0 miNNE (20°)6.9 mphOvercast
3:15 AM36.1 °F33.4 °F90 %30.21 in10.0 miNNE (30°)5.8 mphOvercast
3:35 AM36.1 °F32.9 °F88 %30.21 in10.0 miNorth (10°)4.6 mphOvercast
3:55 AM36.5 °F32.5 °F86 %30.22 in10.0 miNorth (360°)4.6 mphOvercast
4:15 AM36.5 °F32.7 °F86 %30.22 in10.0 miNorth (10°)5.8 mphOvercast
4:35 AM36.5 °F32.9 °F87 %30.21 in10.0 miNorth (10°)3.5 mphOvercast
4:55 AM36.5 °F32.9 °F87 %30.21 in10.0 miCalmOvercast
5:15 AM36.9 °F33.1 °F86 %30.20 in7.0 miCalmRainLight Rain
5:35 AM36.5 °F33.8 °F90 %30.19 in7.0 miNNE (20°)3.5 mphDrizzle
5:55 AM36.5 °F34.7 °F93 %30.20 in5.0 miNE (40°)4.6 mphDrizzle
6:15 AM36.5 °F35.1 °F95 %30.20 in4.0 miNorth (10°)3.5 mph0.01 inRainLight Rain
6:35 AM36.1 °F35.1 °F96 %30.20 in7.0 miNorth (10°)3.5 mph0.01 inDrizzle
6:55 AM36.1 °F35.1 °F96 %30.19 in7.0 miNorth (10°)3.5 mph0.02 inDrizzle
7:15 AM36.5 °F35.6 °F97 %30.19 in7.0 miNNE (20°)4.6 mphLight Drizzle
7:35 AM36.5 °F35.8 °F97 %30.18 in5.0 miNorth (10°)4.6 mphLight Drizzle
7:55 AM36.7 °F35.8 °F97 %30.18 in7.0 miNNE (20°)5.8 mphOvercast
8:15 AM37.0 °F36.1 °F97 %30.18 in7.0 miNNE (20°)5.8 mphOvercast
8:35 AM36.9 °F36.1 °F97 %30.19 in5.0 miNNW (340°)4.6 mphThunderstormOvercast
8:55 AM37.2 °F36.3 °F97 %30.17 in4.0 miNorth (350°)5.8 mphDrizzle
9:15 AM37.2 °F36.5 °F97 %30.18 in1.2 miCalm0.02 inRainHeavy Rain
9:35 AM37.4 °F36.7 °F97 %30.21 in1.8 miCalm0.03 inHeavy Drizzle
9:55 AM37.6 °F37.0 °F98 %30.21 in1.2 miCalm0.05 inHeavy Drizzle
10:15 AM38.3 °F37.6 °F97 %30.19 in3.0 miNNW (340°)4.6 mphRainLight Rain
10:35 AM38.3 °F37.4 °F97 %30.19 in4.0 miNNW (340°)3.5 mphLight Drizzle
10:55 AM38.8 °F37.9 °F97 %30.20 in7.0 miNNW (330°)4.6 mphOvercast
11:15 AM39.2 °F38.1 °F96 %30.20 in7.0 miNNW (340°)5.8 mphOvercast
11:35 AM39.7 °F38.7 °F96 %30.18 in7.0 miNNW (330°)3.5 mphOvercast
11:55 AM40.5 °F39.0 °F95 %30.17 in7.0 miNorth (350°)4.6 mphOvercast
12:15 PM40.6 °F39.0 °F94 %30.14 in7.0 miNNW (340°)3.5 mphOvercast
12:35 PM41.4 °F39.6 °F93 %30.14 in7.0 miNNW (330°)5.8 mphOvercast
12:55 PM41.5 °F39.7 °F93 %30.13 in7.0 miNNW (330°)4.6 mphOvercast
1:15 PM42.4 °F40.3 °F92 %30.12 in10.0 miNorth (350°)5.8 mphOvercast
1:35 PM42.8 °F40.3 °F91 %30.11 in10.0 miNorth (350°)5.8 mphOvercast
1:55 PM43.5 °F40.6 °F90 %30.08 in10.0 miNorth (360°)6.9 mphOvercast
2:15 PM43.9 °F40.6 °F88 %30.08 in10.0 miNNW (340°)5.8 mphOvercast
2:35 PM44.2 °F40.6 °F87 %30.08 in10.0 miNNW (330°)5.8 mphOvercast
2:55 PM44.6 °F40.5 °F85 %30.08 in10.0 miNorth (350°)6.9 mphOvercast
3:15 PM44.8 °F40.5 °F85 %30.08 in10.0 miNorth (350°)4.6 mphOvercast
3:35 PM45.1 °F40.8 °F85 %30.08 in10.0 miNorth (360°)4.6 mphOvercast
3:55 PM45.1 °F41.0 °F85 %30.08 in10.0 miNorth (350°)4.6 mphOvercast
4:15 PM44.8 °F41.0 °F87 %30.07 in10.0 miNorth (10°)4.6 mphOvercast
4:35 PM44.8 °F41.2 °F87 %30.08 in10.0 miNorth (350°)5.8 mphOvercast
4:55 PM44.6 °F41.0 °F87 %30.09 in7.0 miNorth (10°)3.5 mphOvercast
5:15 PM44.8 °F41.4 °F88 %30.08 in7.0 miNorth (360°)3.5 mphOvercast
5:35 PM44.6 °F41.7 °F90 %30.09 in10.0 miNorth (350°)5.8 mphOvercast
5:55 PM44.6 °F41.7 °F90 %30.10 in10.0 miNNW (340°)3.5 mphOvercast
6:15 PM44.8 °F41.4 °F88 %30.11 in10.0 miNW (310°)3.5 mphOvercast
6:35 PM44.6 °F41.9 °F90 %30.12 in10.0 miNW (320°)4.6 mphOvercast
6:55 PM44.6 °F42.1 °F91 %30.11 in10.0 miNorth (350°)5.8 mphOvercast
7:15 PM44.8 °F42.4 °F91 %30.12 in10.0 miCalmOvercast
7:35 PM44.8 °F42.6 °F92 %30.13 in10.0 miNNW (340°)4.6 mphOvercast
7:55 PM44.8 °F42.8 °F93 %30.13 in10.0 miNorth (350°)5.8 mphOvercast
8:15 PM44.6 °F42.6 °F93 %30.13 in10.0 miNorth (350°)3.5 mphOvercast
8:35 PM44.6 °F42.6 °F93 %30.12 in10.0 miNorth (360°)4.6 mphOvercast
8:55 PM44.8 °F42.8 °F93 %30.13 in10.0 miCalmOvercast
9:15 PM45.0 °F43.2 °F93 %30.13 in10.0 miCalmOvercast
9:35 PM45.1 °F43.3 °F93 %30.13 in7.0 miCalmOvercast
9:55 PM45.1 °F43.7 °F95 %30.13 in7.0 miNorth (350°)3.5 mphOvercast
10:15 PM45.5 °F43.7 °F93 %30.14 in7.0 miNNW (340°)3.5 mphDrizzle
10:35 PM45.1 °F43.2 °F93 %30.14 in7.0 miNNW (340°)3.5 mphOvercast
10:55 PM45.1 °F43.7 °F95 %30.14 in10.0 miNorth (360°)5.8 mphOvercast
11:15 PM45.1 °F43.7 °F95 %30.14 in10.0 miNorth (350°)5.8 mphOvercast
11:35 PM45.5 °F43.7 °F93 %30.14 in10.0 miNNW (340°)5.8 mphOvercast
11:55 PM45.5 °F43.7 °F93 %30.13 in10.0 miNorth (350°)4.6 mphOvercast
Hourly data recorded from KORG, located miles away from Mauriceville, Texas







STORIES FROM OUR PARTNERS